• Currently

    Reported at Lexington, Jim Kelly Field Airport, NE
    1:15 PM CST FRI MAR 24 2017
  • 41°F5°C
  • Drizzle
    Drizzle
  • Feels Like:33°F0.4°CDew Point:39°F4°CHumidity:93% Winds:NE 18 mph G 2329 kph G 37Pressure:29.97 in1015 hPaVisibility:4.00 miles6436.00 meters
Time Weather Temp Dew Point
Humidity Winds Visibility Pressure Precipitation
1 hr 24 hr
Saturday, March 25
14:35 14:35 Cloudy With Light Rain Cloudy With Light Rain 40°F5°C 38°F3°C 91% NNE 18 mphNNE 30 kph 3.0 miles4.8 km 29.97 in1015 hPa 0.00 in0.00 mm --
14:15 14:15 Cloudy With Light Drizzle Cloudy With Light Drizzle 41°F5°C 38°F4°C 91% NE 18 mphNE 30 kph 4.0 miles6.4 km 29.97 in1015 hPa 0.00 in0.00 mm --
13:55 13:55 Cloudy With Light Rain Cloudy With Light Rain 41°F5°C 38°F4°C 90% NNE 22 mphNNE 35 kph 4.0 miles6.4 km 29.97 in1015 hPa 0.04 in25.81 mm --
13:35 13:35 Cloudy With Light Rain Cloudy With Light Rain 41°F5°C 38°F3°C 89% NNE 23 mphNNE 37 kph 7.0 miles11.3 km 29.97 in1015 hPa 0.00 in0.00 mm --
13:15 13:15 Cloudy Cloudy 41°F5°C 38°F3°C 87% NNE 20 mphNNE 31 kph 10.0 miles16.1 km 29.97 in1015 hPa 0.00 in0.00 mm --
12:55 12:55 Cloudy Cloudy 42°F5°C 38°F3°C 88% NNE 17 mphNNE 28 kph 10.0 miles16.1 km 29.94 in1014 hPa 0.00 in0.00 mm --
12:35 12:35 Cloudy Cloudy 42°F6°C 38°F4°C 87% NNE 23 mphNNE 37 kph 10.0 miles16.1 km 29.94 in1014 hPa 0.00 in0.00 mm --
12:15 12:15 Cloudy Cloudy 42°F6°C 39°F4°C 88% NNE 29 mphNNE 46 kph 10.0 miles16.1 km 29.91 in1013 hPa 0.00 in0.00 mm --
11:55 11:55 Cloudy Cloudy 41°F5°C 38°F4°C 90% NNE 29 mphNNE 46 kph 7.0 miles11.3 km 29.91 in1013 hPa 0.00 in0.00 mm --
11:35 11:35 Cloudy Cloudy 41°F5°C 38°F3°C 89% NNE 29 mphNNE 46 kph 10.0 miles16.1 km 29.91 in1013 hPa 0.00 in0.00 mm --
11:15 11:15 Cloudy With Mist And Fog Cloudy With Mist And Fog 41°F5°C 38°F3°C 89% NNE 30 mphNNE 48 kph 5.0 miles8.0 km 29.88 in1012 hPa 0.00 in0.00 mm --
10:55 10:55 Cloudy With Light Rain Cloudy With Light Rain 41°F5°C 38°F3°C 90% NNE 26 mphNNE 43 kph 4.0 miles6.4 km 29.88 in1012 hPa 0.05 in32.26 mm --
10:35 10:35 Cloudy With Light Rain Cloudy With Light Rain 40°F5°C 38°F3°C 91% NNE 30 mphNNE 48 kph 1.8 miles2.8 km 29.88 in1012 hPa 0.04 in25.81 mm --
10:15 10:15 Cloudy With Overcast And Windy Cloudy With Overcast And Windy 40°F5°C 38°F3°C 90% N 29 mphN 46 kph 1.2 miles2.0 km 29.91 in1013 hPa 0.03 in19.35 mm --
09:55 09:55 Cloudy With Light Rain Cloudy With Light Rain 40°F5°C 38°F3°C 90% N 20 mphN 31 kph 2.5 miles4.0 km 29.91 in1013 hPa 0.05 in32.26 mm --
09:35 09:35 Cloudy With Light Rain Cloudy With Light Rain 41°F5°C 38°F3°C 90% N 29 mphN 46 kph 3.0 miles4.8 km 29.88 in1012 hPa 0.04 in25.81 mm --
09:15 09:15 Cloudy With Rain Cloudy With Rain 42°F5°C 39°F4°C 90% N 22 mphN 35 kph 4.0 miles6.4 km 29.88 in1012 hPa 0.01 in6.45 mm --
08:55 08:55 Windy With Snow Likely Windy With Snow Likely 42°F6°C 39°F4°C 90% N 24 mphN 39 kph 3.0 miles4.8 km 29.88 in1012 hPa 0.05 in32.26 mm --
08:35 08:35 Cloudy With Light Rain Cloudy With Light Rain 43°F6°C 39°F4°C 88% NNE 26 mphNNE 43 kph 5.0 miles8.0 km 29.85 in1011 hPa 0.01 in6.45 mm --
08:15 08:15 Cloudy With Light Rain Cloudy With Light Rain 43°F6°C 40°F4°C 88% NNE 21 mphNNE 33 kph 5.0 miles8.0 km 29.83 in1010 hPa 0.01 in6.45 mm --
07:55 07:55 Cloudy With Light Rain Cloudy With Light Rain 44°F6°C 40°F4°C 86% N 20 mphN 31 kph 7.0 miles11.3 km 29.83 in1010 hPa 0.00 in0.00 mm --
07:35 07:35 Cloudy With Light Rain Cloudy With Light Rain 45°F7°C 41°F5°C 87% NNE 25 mphNNE 41 kph 7.0 miles11.3 km 29.83 in1010 hPa 0.00 in0.00 mm --
07:15 07:15 Cloudy With Light Drizzle Cloudy With Light Drizzle 46°F8°C 43°F6°C 87% NNE 26 mphNNE 43 kph 7.0 miles11.3 km 29.8 in1009 hPa 0.00 in0.00 mm --
06:55 06:55 Cloudy With Light Rain Cloudy With Light Rain 48°F9°C 44°F7°C 87% NNE 22 mphNNE 35 kph 10.0 miles16.1 km 29.8 in1009 hPa 0.00 in0.00 mm --
06:35 06:35 Cloudy Cloudy 48°F9°C 45°F7°C 88% NNE 24 mphNNE 39 kph 10.0 miles16.1 km 29.8 in1009 hPa 0.00 in0.00 mm --
06:15 06:15 Cloudy Cloudy 49°F10°C 46°F8°C 89% NNE 22 mphNNE 35 kph 10.0 miles16.1 km 29.77 in1008 hPa 0.00 in0.00 mm --
05:55 05:55 Cloudy Cloudy 50°F10°C 47°F8°C 88% NNE 21 mphNNE 33 kph 10.0 miles16.1 km 29.77 in1008 hPa 0.01 in6.45 mm --
05:35 05:35 Cloudy Cloudy 51°F10°C 48°F9°C 91% NNE 24 mphNNE 39 kph 10.0 miles16.1 km 29.74 in1007 hPa 0.00 in0.00 mm --
05:15 05:15 Cloudy Cloudy 51°F10°C 48°F9°C 91% NNE 18 mphNNE 30 kph 10.0 miles16.1 km 29.74 in1007 hPa 0.00 in0.00 mm --
04:55 04:55 Cloudy Cloudy 53°F12°C 50°F10°C 91% N 23 mphN 37 kph 10.0 miles16.1 km 29.74 in1007 hPa 0.00 in0.00 mm --
04:35 04:35 Cloudy Cloudy 53°F12°C 51°F10°C 92% NE 18 mphNE 30 kph 10.0 miles16.1 km 29.71 in1006 hPa 0.00 in0.00 mm --
04:15 04:15 Cloudy With Light Rain Cloudy With Light Rain 53°F12°C 51°F10°C 93% NE 12 mphNE 19 kph 10.0 miles16.1 km 29.74 in1007 hPa 0.00 in0.00 mm --
03:55 03:55 Cloudy With Light Drizzle Cloudy With Light Drizzle 53°F12°C 51°F10°C 92% NE 10 mphNE 17 kph 10.0 miles16.1 km 29.74 in1007 hPa 0.02 in12.90 mm --
03:35 03:35 Cloudy With Light Drizzle Cloudy With Light Drizzle 53°F12°C 50°F10°C 91% ENE 9 mphENE 15 kph 10.0 miles16.1 km 29.74 in1007 hPa 0.02 in12.90 mm --
03:15 03:15 Cloudy With Light Rain Cloudy With Light Rain 53°F12°C 50°F10°C 91% E 10 mphE 17 kph 7.0 miles11.3 km 29.74 in1007 hPa 0.01 in6.45 mm --
02:55 02:55 Cloudy With Light Rain Cloudy With Light Rain 53°F12°C 50°F10°C 89% ENE 17 mphENE 28 kph 10.0 miles16.1 km 29.74 in1007 hPa 0.00 in0.00 mm --
02:35 02:35 Cloudy Cloudy 54°F12°C 50°F10°C 88% ENE 20 mphENE 31 kph 10.0 miles16.1 km 29.74 in1007 hPa 0.00 in0.00 mm --
02:15 02:15 Cloudy Cloudy 54°F12°C 50°F10°C 88% ENE 22 mphENE 35 kph 10.0 miles16.1 km 29.74 in1007 hPa 0.00 in0.00 mm --
01:55 01:55 Mostly Cloudy Mostly Cloudy 55°F12°C 51°F11°C 88% ENE 18 mphENE 30 kph 10.0 miles16.1 km 29.71 in1006 hPa 0.00 in0.00 mm --
01:35 01:35 Cloudy Cloudy 55°F13°C 51°F11°C 87% NE 25 mphNE 41 kph 10.0 miles16.1 km 29.71 in1006 hPa 0.00 in0.00 mm --
01:15 01:15 Cloudy Cloudy 55°F13°C 50°F10°C 84% NNE 20 mphNNE 31 kph 10.0 miles16.1 km 29.71 in1006 hPa 0.00 in0.00 mm --
00:55 00:55 Cloudy Cloudy 55°F13°C 51°F11°C 88% NE 25 mphNE 41 kph 10.0 miles16.1 km 29.68 in1005 hPa 0.04 in25.81 mm --
00:35 00:35 Cloudy With Light Rain Cloudy With Light Rain 55°F13°C 51°F11°C 88% NE 29 mphNE 46 kph 10.0 miles16.1 km 29.68 in1005 hPa 0.04 in25.81 mm --
00:15 00:15 Cloudy With Rain Cloudy With Rain 56°F14°C 53°F12°C 87% NNE 22 mphNNE 35 kph 7.0 miles11.3 km 29.68 in1005 hPa 0.02 in12.90 mm --